Eastsound, WA

11:14 AM PST on February 14, 2016 (GMT -0800)
Orcas Island

Weather History for KORS - September, 2013

Change the Weather History Date:

Tuesday, September 3, 2013

  Actual Average (KBLI) Record (KBLI)
Temperature  
Mean Temperature 62 °F 60 °F  
Max Temperature 68 °F 70 °F 87 °F (1988)
Min Temperature 55 °F 50 °F 40 °F (1958)
Degree Days  
Heating Degree Days 4 5  
Month to date heating degree days 14  
Cooling Degree Days 0 0  
Month to date cooling degree days 0  
Year to date cooling degree days 40  
Growing Degree Days 12 (Base 50)    
Moisture  
Dew Point 58 °F    
Average Humidity 95    
Maximum Humidity 100    
Minimum Humidity 68    
Precipitation  
Precipitation 0.12 in 0.06 in 0.40 in (1978)
Month to date precipitation 0.17  
Year to date precipitation 20.52  
Sea Level Pressure  
Sea Level Pressure 29.98 in    
Wind  
Wind Speed 1 mph (SE)    
Max Wind Speed 7 mph    
Max Gust Speed -    
Visibility 9 miles    
Events Rain    
T = Trace of Precipitation, MM = Missing Value Source: NWS Daily Summary

Daily Weather History Graph

Daily Weather History Graph

Search for Another Location

Airport or City:

Trip Planner

Search our weather history database for the weather conditions in past years. The results will help you decide how hot, cold, wet, or windy it might be!

Date:

Astronomy

Sep. 03, 2013 Rise Set
Actual Time 6:31 AM PDT 7:48 PM PDT
Civil Twilight 5:59 AM PDT 8:21 PM PDT
Nautical Twilight 5:20 AM PDT 9:00 PM PDT
Astronomical Twilight 4:37 AM PDT 9:42 PM PDT
Moon 4:47 AM PDT (9/3) 6:40 PM PDT (9/3)
Length of Visible Light 14h 21m
Length of Day
13h 16m
Waning Crescent, 3% of the Moon is Illuminated
Sep 3
Waning Crescent
Sep 5
New
Sep 12
First Quarter
Sep 19
Full
Sep 26
Last Quarter

Hourly Weather History & Observations

Time (PDT) Temp. Dew Point Humidity Pressure Visibility Wind Dir Wind Speed Gust Speed Precip Events Conditions
12:15 AM 57.2 °F 55.4 °F 94% 29.93 in 10.0 mi Calm Calm - N/A   Clear
12:35 AM 57.2 °F 55.4 °F 94% 29.93 in 10.0 mi Calm Calm - N/A   Clear
12:55 AM 57.2 °F 55.4 °F 94% 29.93 in 10.0 mi Calm Calm - N/A   Clear
1:15 AM 57.2 °F 55.4 °F 94% 29.93 in 10.0 mi Calm Calm - N/A   Clear
1:35 AM 55.4 °F 55.4 °F 100% 29.93 in 10.0 mi Calm Calm - N/A   Clear
1:55 AM 55.4 °F 55.4 °F 100% 29.93 in 10.0 mi Calm Calm - N/A   Clear
2:15 AM 57.2 °F 55.4 °F 94% 29.94 in 10.0 mi SSE 3.5 mph - N/A   Clear
2:35 AM 55.4 °F 55.4 °F 100% 29.94 in 10.0 mi Calm Calm - N/A   Clear
2:55 AM 55.4 °F 55.4 °F 100% 29.93 in 10.0 mi Calm Calm - N/A   Clear
3:15 AM 55.4 °F 55.4 °F 100% 29.93 in 10.0 mi Calm Calm - N/A   Clear
3:35 AM 57.2 °F 55.4 °F 94% 29.95 in 10.0 mi South 3.5 mph - N/A Rain Light Rain
3:55 AM 57.2 °F 55.4 °F 94% 29.94 in 8.0 mi Calm Calm - N/A Rain Light Rain
4:15 AM 57.2 °F 57.2 °F 100% 29.94 in 8.0 mi South 4.6 mph - N/A Rain Light Rain
4:35 AM 57.2 °F 57.2 °F 100% 29.94 in 6.0 mi Calm Calm - N/A Rain Light Rain
4:55 AM 57.2 °F 55.4 °F 94% 29.93 in 8.0 mi Calm Calm - N/A Rain Light Rain
5:15 AM 57.2 °F 57.2 °F 100% 29.96 in 5.0 mi South 4.6 mph - N/A Rain Light Rain
5:35 AM 57.2 °F 57.2 °F 100% 29.95 in 4.0 mi South 4.6 mph - 0.03 in Rain Rain
5:55 AM 57.2 °F 57.2 °F 100% 29.96 in 4.0 mi SSW 3.5 mph - 0.05 in Rain Rain
6:15 AM 57.2 °F 57.2 °F 100% 29.95 in 4.0 mi Calm Calm - 0.01 in Rain Light Rain
6:35 AM 57.2 °F 57.2 °F 100% 29.93 in 5.0 mi Calm Calm - 0.01 in Rain Light Rain
6:55 AM 59.0 °F 59.0 °F 100% 29.94 in 10.0 mi Calm Calm - 0.01 in Rain Light Rain
7:15 AM 57.2 °F 57.2 °F 100% 29.97 in 7.0 mi South 5.8 mph - 0.01 in Rain Light Rain
7:35 AM 59.0 °F 59.0 °F 100% 29.97 in 5.0 mi East 4.6 mph - 0.05 in Rain Light Rain
7:55 AM 57.2 °F 57.2 °F 100% 29.98 in 3.0 mi Calm Calm - 0.05 in Rain Light Rain
8:15 AM 57.2 °F 57.2 °F 100% 29.97 in 3.0 mi ENE 6.9 mph - 0.01 in Rain Rain
8:35 AM 59.0 °F 59.0 °F 100% 29.97 in 9.0 mi Calm Calm - 0.01 in   Mostly Cloudy
8:55 AM 59.0 °F 59.0 °F 100% 29.97 in 10.0 mi East 3.5 mph - 0.01 in   Scattered Clouds
9:15 AM 59.0 °F 59.0 °F 100% 29.99 in 10.0 mi ESE 3.5 mph - N/A   Partly Cloudy
9:35 AM 59.0 °F 59.0 °F 100% 29.97 in 5.0 mi Calm Calm - N/A Rain Light Rain
9:55 AM 59.0 °F 59.0 °F 100% 29.98 in 10.0 mi Calm Calm - N/A   Clear
10:15 AM 59.0 °F 59.0 °F 100% 29.98 in 10.0 mi Calm Calm - N/A   Partly Cloudy
10:35 AM 62.6 °F 60.8 °F 94% 29.99 in 9.0 mi South 3.5 mph - N/A Rain Light Rain
10:55 AM 62.6 °F 60.8 °F 94% 30.00 in 10.0 mi Calm Calm - N/A   Scattered Clouds
11:15 AM 62.6 °F 60.8 °F 94% 29.99 in 10.0 mi Calm Calm - N/A Rain Light Rain
11:35 AM 62.6 °F 62.6 °F 100% 29.99 in 10.0 mi North - - N/A   Partly Cloudy
11:55 AM 62.6 °F 60.8 °F 94% 29.99 in 10.0 mi North - - N/A   Scattered Clouds
12:15 PM 62.6 °F 60.8 °F 94% 29.99 in 10.0 mi Calm Calm - N/A   Mostly Cloudy
12:35 PM 62.6 °F 62.6 °F 100% 29.99 in 10.0 mi Calm Calm - N/A   Mostly Cloudy
12:55 PM 62.6 °F 60.8 °F 94% 29.99 in 10.0 mi Calm Calm - N/A   Mostly Cloudy
1:15 PM 60.8 °F 60.8 °F 100% 30.00 in 10.0 mi Calm Calm - N/A   Scattered Clouds
1:35 PM 62.6 °F 62.6 °F 100% 30.00 in 10.0 mi Calm Calm - N/A   Partly Cloudy
1:55 PM 64.4 °F 62.6 °F 94% 30.00 in 10.0 mi NNW 3.5 mph - N/A   Scattered Clouds
2:15 PM 62.6 °F 60.8 °F 94% 30.00 in 10.0 mi West 3.5 mph - N/A   Scattered Clouds
2:35 PM 64.4 °F 62.6 °F 94% 30.00 in 10.0 mi Calm Calm - N/A   Clear
2:55 PM 64.4 °F 60.8 °F 88% 30.00 in 10.0 mi North 4.6 mph - N/A   Clear
3:15 PM 62.6 °F 59.0 °F 88% 30.01 in 10.0 mi Calm Calm - N/A   Clear
3:35 PM 62.6 °F 60.8 °F 94% 30.01 in 10.0 mi Calm Calm - N/A   Clear
3:55 PM 64.4 °F 60.8 °F 88% 30.01 in 10.0 mi North 3.5 mph - N/A   Clear
4:15 PM 64.4 °F 59.0 °F 83% 30.01 in 10.0 mi Calm Calm - N/A   Clear
4:35 PM 64.4 °F 59.0 °F 83% 30.01 in 10.0 mi Calm Calm - N/A   Clear
4:55 PM 64.4 °F 59.0 °F 83% 30.00 in 10.0 mi Calm Calm - N/A   Clear
5:15 PM 64.4 °F 59.0 °F 83% 30.00 in 10.0 mi Calm Calm - N/A   Clear
5:35 PM 66.2 °F 59.0 °F 78% 30.00 in 10.0 mi Calm Calm - N/A   Clear
5:55 PM 68.0 °F 57.2 °F 68% 30.00 in 10.0 mi Calm Calm - N/A   Clear
6:15 PM 68.0 °F 59.0 °F 73% 29.99 in 10.0 mi Calm Calm - N/A   Clear
6:35 PM 64.4 °F 59.0 °F 83% 29.99 in 10.0 mi Calm Calm - N/A   Clear
6:55 PM 62.6 °F 59.0 °F 88% 29.99 in 10.0 mi Calm Calm - N/A   Clear
7:15 PM 62.6 °F 59.0 °F 88% 29.98 in 10.0 mi NNW 3.5 mph - N/A   Partly Cloudy
7:35 PM 59.0 °F 59.0 °F 100% 29.99 in 10.0 mi Calm Calm - N/A   Clear
7:55 PM 59.0 °F 59.0 °F 100% 29.99 in 10.0 mi Calm Calm - N/A   Clear
8:15 PM 59.0 °F 59.0 °F 100% 30.00 in 10.0 mi Calm Calm - N/A   Clear
8:35 PM 59.0 °F 59.0 °F 100% 30.01 in 10.0 mi Calm Calm - N/A   Clear
8:55 PM 59.0 °F 57.2 °F 94% 30.01 in 10.0 mi Calm Calm - N/A   Clear
9:15 PM 59.0 °F 57.2 °F 94% 30.01 in 10.0 mi Calm Calm - N/A   Clear
9:35 PM 59.0 °F 57.2 °F 94% 30.01 in 10.0 mi Calm Calm - N/A   Clear
9:55 PM 57.2 °F 57.2 °F 100% 30.02 in 10.0 mi Calm Calm - N/A   Clear
10:15 PM 57.2 °F 57.2 °F 100% 30.02 in 10.0 mi Calm Calm - N/A   Clear
10:35 PM 57.2 °F 57.2 °F 100% 30.02 in 10.0 mi Calm Calm - N/A   Clear
10:55 PM 57.2 °F 57.2 °F 100% 30.01 in 10.0 mi Calm Calm - N/A   Clear
11:15 PM 57.2 °F 57.2 °F 100% 30.02 in 10.0 mi Calm Calm - N/A   Clear
11:35 PM 57.2 °F 57.2 °F 100% 30.02 in 10.0 mi Calm Calm - N/A   Clear
11:55 PM 57.2 °F 57.2 °F 100% 30.03 in 10.0 mi Calm Calm - N/A   Clear